Flag for Spain Weather past 2 weeks in Santander, Spain

Now
55 °F

Clear.


Feels Like: 55 °F
Forecast: 60 / 77 °F
Wind: 2 mph from South

Location: Santander / Parayas

Current Time: Oct 26, 2014 at 7:24:06 AM

Latest Report: Oct 26, 2014 at 6:30 AM


Visibility: 10 mi

Pressure: 30.15 "Hg

Humidity: 94%

Dew point: 54 °F

Location of SantanderLocation

Historic Weather in Santander — Graph

°F

Santander temperature yesterday

Maximum temperature yesterday: 70 °F (at 12:30 PM)
Minimum temperature yesterday: 54 °F (at 7:00 AM)
Average temperature yesterday: 63 °F

Past Weeks' High & Low Weather Summary

 TemperatureHumidityPressure
High86 °F (Oct 18, 3:30 PM)100% (Oct 11, 9:00 AM)30.48 "Hg (Oct 11, 9:00 AM)
Low48 °F (Oct 23, 6:30 AM)25% (Oct 18, 4:00 PM)29.50 "Hg (Oct 12, 7:30 AM)
Average66 °F72%29.97 "Hg
* Reported Oct 11 7:00 AM — Oct 26 6:30 AM, Santander, Weather by CustomWeather, © 2014

Note: Actual official high and low records may vary slightly from our data, if they occured in-between our weather recording intervals... More about our weather records

Advertising

Santander weather history for previous 24 hours

 ConditionsComfort  
Time TempWeatherWind HumidityBarometerVisibility
6:30 AM
Oct 26
55 °FClear.2 mph94%30.15 "Hg10 mi
6:00 AM54 °FClear.No wind100%30.15 "Hg10 mi
5:30 AM55 °FClear.No wind94%30.15 "Hg10 mi
11:00 PM
Oct 25
59 °FClear.1 mph94%30.18 "Hg10 mi
10:30 PM61 °FClear.2 mph94%30.18 "Hg5 mi
10:00 PM61 °FClear.No wind88%30.18 "Hg6 mi
9:30 PM63 °FClear.2 mph88%30.18 "Hg6 mi
9:00 PM64 °FClear.No wind88%30.18 "Hg10 mi
8:30 PM64 °FClear.1 mph88%30.18 "Hg10 mi
8:00 PM66 °FSunny.2 mph83%30.18 "Hg10 mi
7:30 PM66 °FSunny.2 mph88%30.18 "Hg10 mi
7:00 PM66 °FPassing clouds.3 mph88%30.15 "HgN/A
6:30 PM68 °FSunny.2 mph83%30.15 "Hg10 mi
6:00 PM68 °FPassing clouds.3 mph83%30.15 "HgN/A
5:30 PM68 °FSunny.2 mph83%30.15 "Hg10 mi
5:00 PM68 °FPassing clouds.3 mph83%30.15 "HgN/A
4:30 PM68 °FPassing clouds.5 mph83%30.15 "HgN/A
4:00 PM68 °FPassing clouds.6 mph78%30.15 "HgN/A
3:30 PM70 °FPassing clouds.7 mph78%30.15 "HgN/A
3:00 PM70 °FPassing clouds.5 mph73%30.15 "HgN/A
2:30 PM70 °FPassing clouds.3 mph69%30.15 "HgN/A
2:00 PM70 °FPassing clouds.3 mph69%30.15 "HgN/A
1:30 PM70 °FSunny.1 mph38%30.15 "Hg10 mi
1:00 PM70 °FSunny.1 mph60%30.15 "Hg10 mi
12:30 PM70 °FSunny.No wind64%30.15 "Hg10 mi
12:00 PM68 °FSunny.No wind69%30.15 "Hg10 mi
11:30 AM64 °FSunny.No wind73%30.15 "Hg10 mi
11:00 AM63 °FSunny.1 mph77%30.15 "Hg10 mi
10:30 AM61 °FSunny.1 mph83%30.15 "Hg10 mi
10:00 AM59 °FSunny.No wind88%30.12 "Hg10 mi
9:30 AM55 °FClear.1 mph94%30.12 "Hg10 mi
9:00 AM55 °FClear.No wind94%30.12 "Hg10 mi
8:30 AM55 °FClear.1 mph94%30.09 "Hg10 mi
8:00 AM55 °FClear.No wind94%30.09 "Hg10 mi
7:30 AM54 °FClear.No wind94%30.09 "Hg10 mi
7:00 AM54 °FClear.No wind94%30.09 "Hg10 mi
Weather by CustomWeather, © 2014

See weather overviewHow to use our weather pages